User: anonymous   Login
Location: Unspecified
(0.0000°N, 0.0000°E)
Time: 23:06:21
(UTC+00:00)
Language:

NOSS 2-2 (C) - Orbit

View from above orbital plane
View from above orbital plane
View from above satellite
View from above satellite

Ground track
Ground track

The orbit data is extracted from the following two-line orbital elements,

1 21799U 91076C   18216.09789145 0.00000000  00000-0  00000-0 0    05
2 21799  63.3420 112.8451 0785000  29.7753 330.2247 13.41181210    06
Epoch (UTC): 04 August 2018 02:20:57
Eccentricity: 0.0785000
inclination: 63.3420°
perigee height: 517 km
apogee height: 1692 km
right ascension of ascending node: 112.8451°
argument of perigee: 29.7753°
revolutions per day: 13.41181210
mean anomaly at epoch: 330.2247°
orbit number at epoch: 0

The dashed part of the orbit path shows where the satellite is in the earth's shadow,  

DLR